• In India
  • List of Countries
  • For 7 days
  • Water Temperature
  • Satellite Maps
  • Weather Map
  • Weather Widgets
  • user-avatar
    Login

    Hourly Weather Bubanza

    Today, 24 September, Monday

    Time Temperature Precipitation Wind Pressure Humidity
    00:00 +21°C° 0 mm 0 mps 672 mmHg 64%
    01:00 +21°C° 0 mm 0 mps 672 mmHg 66%
    02:00 +20°C° 0 mm 0 mps 671 mmHg 69%
    03:00 +20°C° 0 mm 0 mps 671 mmHg 70%
    04:00 +20°C° 0 mm 0 mps 671 mmHg 71%
    05:00 +19°C° 0 mm 0 mps 671 mmHg 72%
    06:00 +23°C° 0 mm 1 mps 672 mmHg 65%
    07:00 +25°C° 0 mm 1 mps 673 mmHg 58%
    08:00 +27°C° 0 mm 1 mps 673 mmHg 49%
    09:00 +29°C° 0 mm 1 mps 674 mmHg 44%
    10:00 +31°C° 0 mm 2 mps 674 mmHg 39%
    11:00 +32°C° 0 mm 2 mps 674 mmHg 34%
    12:00 +32°C° 0 mm 2 mps 673 mmHg 34%
    13:00 +32°C° 0 mm 2 mps 672 mmHg 33%
    14:00 +31°C° 0 mm 2 mps 672 mmHg 39%
    15:00 +30°C° 0 mm 2 mps 672 mmHg 41%
    16:00 +30°C° 0 mm 2 mps 672 mmHg 43%
    17:00 +29°C° 0 mm 1 mps 671 mmHg 46%
    18:00 +28°C° 0 mm 1 mps 672 mmHg 49%
    19:00 +26°C° 0 mm 1 mps 672 mmHg 53%
    20:00 +23°C° 0 mm 0 mps 672 mmHg 57%
    21:00 +22°C° 0 mm 0 mps 672 mmHg 59%
    22:00 +22°C° 0 mm 0 mps 673 mmHg 61%
    23:00 +21°C° 0 mm 0 mps 673 mmHg 63%

    Tomorrow, 25 September, Tuesday

    Time Temperature Precipitation Wind Pressure Humidity
    00:00 +21°C° 0 mm 0 mps 672 mmHg 64%
    01:00 +22°C° 0 mm 1 mps 672 mmHg 65%
    02:00 +22°C° 0 mm 1 mps 671 mmHg 67%
    03:00 +22°C° 0 mm 1 mps 671 mmHg 67%
    04:00 +21°C° 0 mm 1 mps 671 mmHg 68%
    05:00 +21°C° 0 mm 1 mps 671 mmHg 69%
    06:00 +23°C° 0 mm 1 mps 672 mmHg 62%
    07:00 +25°C° 0 mm 1 mps 673 mmHg 54%
    08:00 +27°C° 0 mm 1 mps 674 mmHg 47%
    09:00 +29°C° 0 mm 1 mps 674 mmHg 43%
    10:00 +31°C° 0 mm 2 mps 674 mmHg 39%
    11:00 +34°C° 0 mm 2 mps 674 mmHg 34%
    12:00 +34°C° 0 mm 2 mps 674 mmHg 33%
    13:00 +34°C° 0 mm 2 mps 673 mmHg 32%
    14:00 +34°C° 0 mm 2 mps 672 mmHg 31%
    15:00 +32°C° 0 mm 2 mps 672 mmHg 34%
    16:00 +31°C° 0 mm 2 mps 671 mmHg 36%
    17:00 +30°C° 0 mm 1 mps 671 mmHg 39%
    18:00 +29°C° 0 mm 1 mps 671 mmHg 43%
    19:00 +27°C° 0 mm 1 mps 672 mmHg 46%
    20:00 +24°C° 0 mm 0 mps 672 mmHg 50%
    21:00 +23°C° 0 mm 0 mps 672 mmHg 52%
    22:00 +22°C° 0 mm 0 mps 673 mmHg 54%
    23:00 +24°C° 0 mm 1 mps 673 mmHg 56%

    Day after tomorrow, 26 September, Wednesday

    Time Temperature Precipitation Wind Pressure Humidity
    00:00 +23°C° 0 mm 1 mps 672 mmHg 57%
    01:00 +23°C° 0 mm 1 mps 672 mmHg 58%
    02:00 +23°C° 0 mm 1 mps 671 mmHg 59%
    03:00 +22°C° 0 mm 1 mps 671 mmHg 60%
    04:00 +22°C° 0 mm 1 mps 671 mmHg 60%
    05:00 +22°C° 0 mm 1 mps 671 mmHg 61%
    06:00 +24°C° 0 mm 1 mps 672 mmHg 55%
    07:00 +25°C° 0 mm 1 mps 673 mmHg 49%
    08:00 +27°C° 0 mm 1 mps 674 mmHg 43%
    09:00 +29°C° 0 mm 2 mps 674 mmHg 40%
    10:00 +31°C° 0 mm 2 mps 674 mmHg 37%
    11:00 +34°C° 0 mm 2 mps 674 mmHg 33%
    12:00 +34°C° 0 mm 2 mps 673 mmHg 33%
    13:00 +34°C° 0 mm 2 mps 672 mmHg 33%
    14:00 +34°C° 0 mm 2 mps 671 mmHg 33%
    15:00 +32°C° 0 mm 2 mps 671 mmHg 35%
    16:00 +32°C° 0 mm 1 mps 671 mmHg 37%
    17:00 +31°C° 0 mm 1 mps 670 mmHg 38%
    18:00 +29°C° 0 mm 1 mps 671 mmHg 43%
    19:00 +25°C° 0 mm 0 mps 671 mmHg 47%
    20:00 +24°C° 0 mm 0 mps 672 mmHg 52%
    21:00 +23°C° 0 mm 0 mps 672 mmHg 54%
    22:00 +23°C° 0 mm 0 mps 672 mmHg 55%
    23:00 +24°C° 0 mm 1 mps 672 mmHg 57%

    27 September, Thursday

    Time Temperature Precipitation Wind Pressure Humidity
    00:00 +24°C° 0 mm 1 mps 672 mmHg 57%
    01:00 +24°C° 0 mm 1 mps 671 mmHg 58%
    02:00 +24°C° 0 mm 1 mps 671 mmHg 58%
    03:00 +23°C° 0 mm 1 mps 671 mmHg 59%
    04:00 +23°C° 0 mm 1 mps 671 mmHg 60%
    05:00 +21°C° 0 mm 0 mps 671 mmHg 60%
    06:00 +24°C° 0 mm 1 mps 672 mmHg 55%
    07:00 +26°C° 0 mm 1 mps 673 mmHg 50%
    08:00 +28°C° 0 mm 2 mps 674 mmHg 45%
    09:00 +30°C° 0 mm 2 mps 674 mmHg 41%
    10:00 +32°C° 0 mm 2 mps 674 mmHg 37%
    11:00 +35°C° 0 mm 2 mps 674 mmHg 33%
    12:00 +34°C° 0 mm 2 mps 673 mmHg 33%
    13:00 +34°C° 0 mm 2 mps 672 mmHg 34%
    14:00 +34°C° 0 mm 2 mps 671 mmHg 34%
    15:00 +32°C° 0.4 mm 2 mps 671 mmHg 38%
    16:00 +31°C° 0.4 mm 1 mps 670 mmHg 43%
    17:00 +30°C° 0.4 mm 1 mps 670 mmHg 47%
    18:00 +28°C° 0.7 mm 1 mps 671 mmHg 52%
    19:00 +26°C° 0.7 mm 1 mps 671 mmHg 57%
    20:00 +23°C° 0.7 mm 0 mps 671 mmHg 62%
    21:00 +22°C° 0.5 mm 0 mps 671 mmHg 64%
    22:00 +22°C° 0.5 mm 0 mps 672 mmHg 66%
    23:00 +22°C° 0.5 mm 0 mps 672 mmHg 67%

    28 September, Friday

    Time Temperature Precipitation Wind Pressure Humidity
    00:00 +21°C° 0.1 mm 0 mps 671 mmHg 68%
    01:00 +21°C° 0.1 mm 0 mps 670 mmHg 69%
    02:00 +23°C° 0.1 mm 1 mps 670 mmHg 70%
    03:00 +23°C° 0 mm 1 mps 670 mmHg 71%
    04:00 +23°C° 0 mm 1 mps 671 mmHg 72%
    05:00 +22°C° 0 mm 1 mps 671 mmHg 72%
    06:00 +24°C° 0.1 mm 1 mps 672 mmHg 68%
    07:00 +25°C° 0.1 mm 1 mps 673 mmHg 64%
    08:00 +27°C° 0.1 mm 1 mps 674 mmHg 59%
    09:00 +28°C° 0.3 mm 1 mps 674 mmHg 57%
    10:00 +29°C° 0.3 mm 1 mps 673 mmHg 54%
    11:00 +30°C° 0.3 mm 2 mps 673 mmHg 52%
    12:00 +31°C° 0.6 mm 2 mps 672 mmHg 51%
    13:00 +31°C° 0.6 mm 2 mps 671 mmHg 49%
    14:00 +32°C° 0.6 mm 2 mps 670 mmHg 48%
    15:00 +31°C° 0.6 mm 2 mps 670 mmHg 51%
    16:00 +30°C° 0.6 mm 1 mps 670 mmHg 54%
    17:00 +29°C° 0.6 mm 1 mps 670 mmHg 56%
    18:00 +28°C° 0.8 mm 1 mps 671 mmHg 61%
    19:00 +26°C° 0.8 mm 1 mps 671 mmHg 66%
    20:00 +23°C° 0.8 mm 0 mps 672 mmHg 71%
    21:00 +22°C° 0.2 mm 0 mps 672 mmHg 72%
    22:00 +22°C° 0.2 mm 0 mps 672 mmHg 73%
    23:00 +22°C° 0.2 mm 0 mps 672 mmHg 73%

    29 September, Saturday

    Time Temperature Precipitation Wind Pressure Humidity
    00:00 +22°C° 0.2 mm 0 mps 671 mmHg 74%
    01:00 +21°C° 0.2 mm 0 mps 671 mmHg 75%
    02:00 +21°C° 0.2 mm 0 mps 671 mmHg 76%
    03:00 +21°C° 0.3 mm 0 mps 671 mmHg 77%
    04:00 +21°C° 0.3 mm 0 mps 671 mmHg 78%
    05:00 +21°C° 0.3 mm 0 mps 672 mmHg 79%
    06:00 +21°C° 0.7 mm 0 mps 672 mmHg 77%
    07:00 +24°C° 0.7 mm 1 mps 673 mmHg 75%
    08:00 +25°C° 0.7 mm 1 mps 674 mmHg 72%
    09:00 +26°C° 1 mm 1 mps 673 mmHg 70%
    10:00 +27°C° 1 mm 1 mps 673 mmHg 68%
    11:00 +28°C° 1 mm 1 mps 673 mmHg 66%
    12:00 +28°C° 1.3 mm 1 mps 672 mmHg 66%
    13:00 +28°C° 1.3 mm 2 mps 671 mmHg 66%
    14:00 +28°C° 1.3 mm 2 mps 671 mmHg 66%
    15:00 +27°C° 2 mm 1 mps 671 mmHg 70%
    16:00 +26°C° 2 mm 1 mps 671 mmHg 74%
    17:00 +26°C° 2 mm 1 mps 671 mmHg 78%
    18:00 +25°C° 1.3 mm 1 mps 671 mmHg 80%
    19:00 +24°C° 1.3 mm 1 mps 672 mmHg 83%
    20:00 +24°C° 1.3 mm 1 mps 672 mmHg 85%
    21:00 +23°C° 0.7 mm 1 mps 672 mmHg 86%
    22:00 +23°C° 0.7 mm 1 mps 672 mmHg 86%
    23:00 +23°C° 0.7 mm 1 mps 672 mmHg 86%
    Show more